Regional Weather Roundup
Issued by NWS

Home | Current Version | Previous Version | Text Only | Print | Product List | Glossary On
Versions: 1 2 3 4 5 6 7 8 9 10 11 12 13 14 15 16 17 18 19 20 21 22 23 24 25 26 27 28 29 30 31 32 33 34 35 36 37 38 39 40 41 42 43 44 45 46 47 48 49 50
000
ASUS43 KDMX 290307
RWRIA

WEATHER ROUNDUP FOR IOWA
NATIONAL WEATHER SERVICE DES MOINES IA
900 PM CST SUN DEC 28 2014

NOTE: "FAIR" INDICATES FEW OR NO CLOUDS BELOW 12,000 FEET WITH NO
SIGNIFICANT WEATHER AND/OR OBSTRUCTIONS TO VISIBILITY.

* - THESE STATIONS ARE NOT NWS STATIONS...THUS NOT UNDER NWS
QUALITY CONTROL.  THEY ALSO DO NOT REPORT WEATHER SUCH
AS PRECIPITATION OR FOG.

IAZ001>003-012>014-020>022-031>034-043>046-290400-
   NORTHWEST IOWA

CITY           SKY/WX    TMP DP  RH WIND       PRES   REMARKS
CARROLL *      CLOUDY    21  19  93 NE7       30.20S WCI  13
CHEROKEE *     CLOUDY    19  18  93 NE6       30.23S WCI  11
DENISON *      CLOUDY    21  19  93 NE12      30.18S WCI   9
LE MARS *      FLURRIES  21  19  93 NE7       30.23S WCI  13
ORANGE CITY *  LGT SNOW  19  18  93 E8        30.21F WCI   9
SHELDON *      CLOUDY    18  18 100 NE14      30.23R FOG     WCI   4
SIOUX CITY     CLOUDY    22  16  78 NE9       30.22R WCI  12
SPENCER        CLOUDY    19  15  84 NE13      30.25R WCI   6
STORM LAKE *   CLOUDY    18  16  93 NE14      30.21R WCI   4
$$

IAZ055>058-069>071-079>083-090>094-290400-
   SOUTHWEST IOWA

CITY           SKY/WX    TMP DP  RH WIND       PRES   REMARKS
ATLANTIC *     CLOUDY    28  25  86 NE7       30.18R WCI  21
AUDUBON *      CLEAR     25  19  80 NE7       30.18S WCI  17
CLARINDA *     CLOUDY    30  27  86 CALM      30.19S
COUNCIL BLFS * CLOUDY    28  27  93 NE7       30.16R WCI  21
CRESTON *      PTCLDY    28  25  86 NE6       30.17R WCI  22
HARLAN  *      CLOUDY    27  27 100 NE8       30.21S WCI  18
LAMONI         CLOUDY    32  18  56 S3        30.18R
RED OAK *      CLOUDY    30  27  86 N5        30.18R WCI  25
SHENANDOAH *   CLOUDY    30  27  86 NE6       30.18R WCI  24
$$

IAZ047>049-059>061-072>074-084-290400-
   CENTRAL IOWA

CITY           SKY/WX    TMP DP  RH WIND       PRES   REMARKS
AMES           CLOUDY    27  22  81 NE7       30.21R WCI  19
ANKENY *       CLOUDY    28  25  86 N5        30.21R WCI  23
CHARITON *     CLOUDY    30  23  74 E3        30.18R
DES MOINES     CLOUDY    31  22  69 NE7       30.20R WCI  24
GRINNELL*      CLOUDY    28  23  80 NE5       30.21R WCI  23
KNOXVILLE *    CLOUDY    30  21  69 NE3       30.18R
MARSHALLTOWN   CLOUDY    26  22  84 NE10      30.20R WCI  16
PELLA *        CLOUDY    30  21  69 CALM      30.21R
PERRY *        MOCLDY    27  25  93 NE8       30.20S WCI  18
$$

IAZ004>006-015-016-023>025-035-036-290400-
   NORTH CENTRAL IOWA

CITY           SKY/WX    TMP DP  RH WIND       PRES   REMARKS
ALGONA *       PTCLDY    16  14  93 NE8       30.25R WCI   5
CLARION *      PTCLDY    18  16  93 NE10      30.22S WCI   6
ESTHERVILLE    CLOUDY    17  16  95 N10       30.24R FOG     WCI   5
FORT DODGE *   CLOUDY    18  12  79 N6        30.23R WCI   9
MASON CITY     MOCLDY    11   9  92 NE3       30.25R
FOREST CITY *  CLEAR     19  14  79 NE5       30.23R WCI  13
IOWA FALLS *     N/A     23  19  86 NE6       30.22S WCI  16
$$

IAZ007>011-017>019-026>030-037>042-050>054-066-290400-
   NORTHEAST IOWA

CITY           SKY/WX    TMP DP  RH WIND       PRES   REMARKS
CEDAR RAPIDS   PTCLDY    25  17  72 CALM      30.22R
CHARLES CITY * PTCLDY    18  16  93 NE8       30.24R WCI   7
CLINTON *      CLEAR     21  16  79 N6        30.26R WCI  14
DECORAH *      CLEAR     19  16  86 CALM      30.23R
DUBUQUE        PTCLDY    20  15  81 CALM      30.22R
MONTICELLO *   CLEAR     21  21 100 CALM      30.23R
OELWEIN *      MOCLDY    23  21  93 NE10      30.23R WCI  12
WATERLOO       CLOUDY    22  20  92 NW3       30.23R
$$

IAZ064-065-067-068-078-290400-
   EAST CENTRAL IOWA

CITY           SKY/WX    TMP DP  RH WIND       PRES   REMARKS
DAVENPORT      PTCLDY    23  17  78 NE5       30.23R WCI  17
IOWA CITY      MOCLDY    23  19  85 CALM      30.25R
MT. PLEASANT * MOCLDY    25  19  80 E3        30.22S
MUSCATINE *    CLEAR     25  19  80 CALM      30.25R
QUAD CITIES    PTCLDY    24  18  77 CALM      30.23R
$$

IAZ062-063-075>077-085>089-095>099-290400-
   SOUTHEAST IOWA

CITY           SKY/WX    TMP DP  RH WIND       PRES   REMARKS
BURLINGTON     PTCLDY    27  23  85 CALM      30.22R
FAIRFIELD *    MOCLDY    27  18  69 E6        30.21S WCI  20
FORT MADISON * CLEAR     30  19  64 CALM      30.22S
KEOKUK *       CLEAR     25  18  74 E3        30.21S
OSKALOOSA *      N/A     25  21  86 E6        30.21R WCI  18
CENTERVILLE *  MOCLDY    28  23  80 S5        30.20R WCI  23
OTTUMWA        CLOUDY    29  21  72 E7        30.19S WCI  22
WASHINGTON *   CLEAR     25  21  86 E6        30.22S WCI  18
$$

ABBREVIATIONS USED IN REMARKS
   TC - TEMPERATURES IN CELSIUS
  WCI - WIND CHILL INDEX
   HX - HEAT INDEX
  VSB - VISIBILITY
$$



USA.gov is the U.S. government's official web portal to all federal, state and local government web resources and services.